KUIPER-00557

导读

KUIPER-00557(NORAD编号69622)是亚马逊柯伊伯(Kuiper)卫星互联网星座的组网卫星,属于低轨道通信卫星。该卫星大概率为2025年7月16日SpaceX猎鹰9号执行的KF-01任务所搭载的24颗柯伊伯卫星之一,这也是柯伊伯项目首次使用猎鹰9号火箭发射,发射工位为美国卡纳维拉尔角SLC-40。 作为亚马逊全球互联网覆盖部署的组成部分,该卫星运行于低地轨道,主要承担高速互联网通信服务职能,重点面向偏远乡村、海上等网络接入不足的区域提供网络支撑,未来可配合柯伊伯星座整体,为普通消费者、企业及政府机构提供低延迟、高带宽的通信服务,支撑远程教育、远程办公等数字化应用场景。 截至2026年6月,该卫星处于正常在轨运行状态,是柯伊伯项目已发射的78颗卫星之一,项目正按计划推进组网部署,逐步完善全球覆盖能力。

基本信息
目录编号:
69622
目录名称:
KUIPER-00557
国际标识:
2026-140AG
轨道中心:
EARTH
卫星名称:
KUIPER-00557
卫星全名:
KUIPER-00557
卫星状态:
在轨 (已飞行70 天)
发射日期:
2026-06-17 UTC
国别 :
美国 (US)
星等 :
--
轨道信息
数据来源 国际轨道数据
星历时间: 2026-08-25T20:38:42+0800
21小时前
查看轨道信息
半长轴: 6829.486km
偏心率: 0.0009792
轨道倾角: 51.880°
近地点辐角 82.575°
升交点赤经 63.241°
平近点角 277.635°
近地点: 444.661km
远地点: 458.037km
周期: 93.614分钟
每日圈数: 15.382283
详细信息
使用方式:
暂无
2D轨道图
3D轨道图
轨道高度分析图
轨道倾角分析图
轨道综合分析图
查看轨道综合分析图